Погода в Кандалакше

Хотите узнать прогноз погоды в Кандалакше? Тогда Вам сюда: Погода в Кандалакше

Поиск расширенной информации на нашем сайте:

Полезная информация:

Новости сайта



02.01.2020
Опубликован Долгосрочный прогноз погоды по городам России и ближнего зарубежья на январь 2020 года.
Карты: Прогноз на январь и февраль 2020 года, Сравнение прогнозируемой аномалии приземной температуры воздуха на январь 2020 года по разным моделям.




Погода в Кандалакше - сегодня

Время (UTC), дата Ветер
(°,м/с) 
Видим.   Явления Облачность Т
(°С)
Тd
(°С)
f(%) Тe
(°С)
Pmin
(гПа)
dP
(гПа)
Po
(мм)
O2
(г/м3)
Тmin Tmax R s Состояние
почвы
00 29.11.20 тихо ()   10 км  слаб. снег  10/10 300 м 
[Frnb|Ns]
-5.8 -6 98 -6  1030.9  -0.6  771  318           
03 29.11.20 200 (Ю) 2-4  10 км  слаб. снег  10/10 300 м 
[Frnb|Ns]
-3.3 -3.3 100 -4  1030.1  -0.8  770  315  -11.5    0.3     
06 29.11.20 170 (Ю) 2-5  10 км  в посл. час снег  10/8 300 м средняя 
[St|As op]
-2.9 -3.2 98 -4  1029.5  -0.6  770  314  -10.1    0.3  21  равномерный
сухой снег
100% 
09 29.11.20 170 (Ю) 2-4  20000 м    10/10 300 м 
[St]
-2.5 -3 96 -4  1029.7  0.2  770  313           
12 29.11.20 190 (Ю) 2-4  20000 м    10/10 300 м 
[St]
-2.4 -3.2 94 -3  1029  -0.7  769  313           
15 29.11.20 170 (Ю) 2-4  10 км  слаб. снег  10/8 300 м средняя 
[Frnb|As op]
-2.5 -2.7 99 -4  1028.4  -0.6  769  313      0.0     
18 29.11.20 180 (Ю) 2-4  10 км  {снег}  10/10 300 м 
[St]
-2.3 -2.7 97 -3  1027.3  -1.1  768  312    -2.2  0.0     
21 29.11.20 190 (Ю) 3-5  10 км    9/8 600 м средняя 
[Sc|Ac As]
-1.9 -2.5 96 -4  1026.3  -1  767  312           
00 30.11.20 170 (Ю) 3-5  10 км    10/8 600 м средняя 
[Sc|Ac und]
-1.3 -2.2 94 -3  1025.1  -1.2  766  311           
03 30.11.20 160 (Ю) 3-6  10 км    9/8 600 м средняя 
[St|As trans]
-1.3 -1.6 98 -3  1023.8  -1.3  765  310  -2.5    0.0     
06 30.11.20 170 (Ю) 4-6  10 км  слаб. снег  10/8 300 м средняя 
[Frnb|As op]
-1.9 -2.3 97 -5  1022.8  -1  765  311  -2.3    0.0  21  равномерный
сухой снег
100% 
09 30.11.20 180 (Ю) 2-5  20000 м  {снег}  10/10 300 м 
[St]
-2.3 -3.2 94 -3  1022.1  -0.7  764  311           
12 30.11.20 160 (Ю) 4-8  20000 м  {снег}  10/10 300 м 
[St]
-2.4 -3.3 94 -5  1020.6  -1.5  763  311           
15 30.11.20 160 (Ю) 3-5  10 км  слаб. ливневой снег  9/9 300 м кучево-дожд. 
[Cb cap]
-2.6 -3.3 95 -5  1018.8  -1.8  762  310      0.0     
18 30.11.20 160 (Ю) 4-7  10 км  {ливн. осадки}  10/10 300 м 
[St]
-2.2 -3 94 -5  1016.7  -2  760  309    -1.9  0.0     
21 30.11.20 150 (ЮВ) 3-6  10 км  слаб. снег  10/8 300 м средняя 
[Frnb|As op]
-1.7 -2.4 95 -4  1015.3  -1.4  759  308           
00 01.12.20 180 (Ю) 2-4  10 км  в посл. час снег  10/8 300 м средняя 
[Frnb|As op]
-1 -1.2 99 -2  1013.4  -1.9  758  307           
03 01.12.20 170 (Ю) 2-4  10 км    10/10 300 м 
[St]
-0.3 -0.5 99 -1  1012  -1.4  757  305  -2.6    0.2     
06 01.12.20 180 (Ю) 1-4  10 км  слаб. снег  10/10 300 м 
[Frnb|Ns]
-0.1 -0.5 97 +1  1010.8  -1.2  756  305  -2.2    0.2  21  равномерный
мокрый или
старый снег
100% 
09 01.12.20 170 (Ю) 2-5  20000 м  слаб. снег  10/8 300 м средняя 
[Frnb|As op]
-0.1 -0.2 99 -1  1010.4  -0.4  755  304           
12 01.12.20 180 (Ю) 2-4  20000 м  в посл. час снег  10/8 300 м средняя 
[Frnb|As op]
-0.2 -0.6 97 -1  1010.3  -0.1  755  305           
15 01.12.20 170 (Ю) 2-4  10 км  слаб. снег  10/10 300 м 
[Frnb|Ns]
-0.6 -1 97 -1  1011.1  0.8  756  305      0.4     
21 01.12.20 тихо ()   10 км  {снег}  10/8 600 м средняя 
[Sc|As op]
-1.4 -1.4 100 -1  1015.1  2.3  759  308           
00 02.12.20 тихо () -1  10 км  {снег}  9/6 600 м средняя 
[Sc|Ac trans]
-2.1 -2.1 100 -2  1017.5  2.4  761  309           
03 02.12.20 340 (С) 1-2  10 км    9/6 600 м кучево-дожд., средняя 
[Cb cap|Ac trans]
-3 -3 100 -3  1019.4  1.8  762  311  -3.1       
Время (UTC), дата Ветер
(°,м/с) 
Видим.   Явления Облачность Т
(°С)
Тd
(°С)
f(%) Тe
(°С)
Pmin
(гПа)
dP
(гПа)
Po
(мм)
O2
(г/м3)
Тmin Tmax R s Состояние
почвы

Для получения пояснительной информации подведите курсор к названию столбца.

ПОГОДА в Кандалакше - архив

Всё, что Вы хотите узнать о погоде в Кандалакше - удобно и подробно!

Выберите нужную дату (начиная с 1 января 2019* года) и нажмите кнопку "Найти".
Будут отображены архивные сводки погоды по пункту Кандалакша, начиная с указанной даты.


Отображать данные в формате CSV (для использования в таблицах Excel)


Внимание! Наш архив погоды предназначен исключительно для личного некоммерческого использования в познавательных целях. Если Вам необходимы официальные справки о состоянии погоды (для производственных, юридических, коммерческих и т.п. целей), обращайтесь в органы Росгидромета.

*Примечание: данная дата относится к архиву по метеостанциям СССР (Россия, СНГ, Балтия).
Архив по метеостанциям Зарубежной Европы и Азии (кроме Китая) хранится 10 дней, по другим регионам земного шара (Китай, Африка, Америка, Австралия, Океания) - 1 день.

Кандалакша - район местоположения метеостанции


Название, широта, долгота, высота метеостанции:
Кандалакша 67.2°ш. 32.3°д. 25 м над ур. моря [Российская Федерация]

Дополнительная информация

В oтличие oт бoльшинства пoгoдных сайтoв мы публикуем пoдрoбную метеoинфoрмацию в детальнoм прoфессиoнальнoм фoрмате.

Характеристики температуры и влажнoсти вoздуха измеряются на высoте 2 м в тени вдали oт зданий и деревьев.
Скoрoсть ветра измеряется на высoте 10 м (на урoвне рoста челoвека скoрoсть ветра ниже в 1.5-2 раза). Если метеoстанция нахoдится в гoрoде или в лесу, тo скoрoсть ветра занижена на 2-4 м/с пo сравнению с oткрытым местoм. Скoрoсть ветра над акватoриями крупных рек и oзёр, а также на вершинах хoлмoв на 2-5 м/с выше, чем в oбычных услoвиях.
Атмoсфернoе давление в разных тoчках местнoсти мoжет значительнo oтличаться oт давления на метеoстанции, в зависимoсти oт услoвий рельефа (при пoдъёме на 10 м давление пoнижается примернo на 1 мм рт.ст.).